Temperature
11 11 11 11 11 11 11 12 12 12 12 12 12 11 11 11 11 11 11 10 10 10 10 10 10 9 9 9 9 9 8 8 8 8 7 7 7 7 6 6 6 5 5
11 11 11 11 11 11 11 11 11 12 12 12 12 11 11 11 11 11 11 10 10 10 10 10 10 9 9 9 9 9 8 8 8 7 7 7 7 6 6 6 5 5 4
10 10 11 11 11 11 11 11 11 11 11 11 11 11 12 11 11 11 11 11 10 10 10 10 10 10 9 9 9 9 8 8 8 7 7 7 6 6 6 5 5 4 4
9 10 10 11 11 11 11 11 11 11 11 11 12 11 11 11 11 11 11 10 10 10 10 10 10 10 9 9 9 9 8 8 7 7 7 6 6 5 5 5 4 4 3
9 10 10 11 11 11 11 11 11 11 11 11 11 11 11 11 11 11 11 10 10 10 10 10 10 9 9 9 9 8 8 8 7 7 6 6 5 5 4 4 3 3 3
9 9 10 10 11 11 11 11 11 11 11 11 11 11 11 11 11 11 11 10 10 10 10 10 9 9 9 9 8 8 8 7 7 6 6 5 5 4 4 3 3 2 2
8 9 9 10 10 11 11 11 11 10 10 11 11 10 10 11 11 11 10 10 10 10 10 10 9 9 8 8 8 8 7 7 6 6 5 5 4 4 3 2 2 2 1
8 8 9 9 10 10 10 10 10 10 10 10 11 10 10 10 11 10 10 10 10 10 9 9 9 9 8 8 8 7 7 6 6 5 5 4 4 3 2 2 1 1 1
7 8 8 9 9 10 10 10 10 10 10 10 10 10 10 10 10 10 10 9 9 9 9 9 8 8 8 8 7 7 6 6 5 5 4 4 3 3 2 1 1 0 -0
7 7 8 9 9 9 10 10 10 10 10 10 10 10 10 10 10 10 9 9 9 8 8 8 8 8 8 7 7 6 6 5 5 4 3 3 2 2 1 1 0 -1 -1
6 7 8 8 8 9 9 9 9 9 9 9 9 9 9 9 9 9 9 9 9 8 8 8 7 7 7 7 6 6 5 5 4 4 3 2 2 1 1 0 -0 -1 -2
6 7 7 8 8 9 9 9 9 9 9 9 9 9 9 9 9 9 9 9 8 8 8 8 7 7 6 6 6 5 5 4 4 3 2 2 1 1 0 -0 -1 -2 -2
6 6 7 7 8 8 8 9 9 9 9 8 8 9 9 9 9 9 8 8 8 8 8 7 7 6 6 5 5 4 4 3 3 2 2 1 1 0 -0 -1 -2 -2 -3
5 6 6 7 7 8 8 8 8 8 8 8 8 8 8 8 8 8 8 8 7 7 7 7 6 6 5 5 4 4 3 3 2 2 1 1 0 -0 -1 -2 -2 -3 -3
5 6 6 7 7 7 8 8 8 8 9 9 9 8 8 8 8 8 8 8 7 7 7 6 6 5 5 4 4 3 3 2 2 1 1 0 -0 -1 -1 -2 -3 -3 -4
5 5 6 6 6 7 7 7 7 8 8 8 8 8 8 9 8 8 8 7 7 7 6 6 5 5 4 4 3 3 2 2 1 1 0 -0 -1 -1 -2 -3 -3 -4 -4
5 5 6 6 6 6 7 7 7 7 7 7 8 8 8 8 8 7 7 7 6 6 6 6 5 5 4 4 3 2 2 1 1 0 -0 -1 -1 -2 -3 -3 -4 -4 -5
5 5 5 6 6 6 6 7 7 6 6 6 6 7 7 7 7 7 7 6 6 5 5 5 5 4 4 3 3 2 1 1 0 -0 -1 -1 -2 -3 -3 -4 -4 -5 -5
5 5 5 5 5 6 6 6 6 6 6 6 6 6 6 6 6 6 6 6 6 5 5 5 4 4 3 3 2 2 1 1 -0 -1 -1 -2 -2 -3 -4 -4 -5 -5 -6
4 5 5 5 5 5 5 5 5 6 6 6 6 6 5 5 5 5 5 5 5 5 5 4 4 3 3 2 2 1 1 0 -0 -1 -1 -2 -3 -3 -4 -4 -5 -6 -6
4 4 4 5 5 5 5 5 5 5 5 5 6 6 6 5 5 5 5 5 5 5 4 4 3 3 2 2 1 1 0 -0 -1 -1 -2 -3 -3 -4 -4 -5 -6 -6 -7
4 4 4 4 4 4 4 4 5 5 5 5 5 5 5 5 5 5 5 4 4 4 4 3 3 2 2 2 1 1 0 -0 -1 -2 -2 -3 -3 -4 -5 -5 -6 -6 -7
3 3 4 4 4 4 4 4 4 4 5 5 5 5 5 5 5 5 4 4 4 3 3 3 2 2 1 1 1 0 -0 -1 -1 -2 -2 -3 -4 -4 -5 -6 -6 -7 -7
3 3 3 3 3 3 3 3 4 4 4 4 4 4 4 4 4 4 4 4 3 3 2 2 2 1 1 1 0 -0 -1 -1 -2 -2 -3 -3 -4 -5 -5 -6 -6 -7 -7
3 3 3 3 3 3 3 3 4 4 4 4 4 4 4 4 4 4 3 3 3 2 2 2 1 1 0 0 -0 -1 -1 -2 -2 -3 -3 -4 -4 -5 -6 -6 -7 -7 -8
3 3 3 3 3 3 3 3 3 3 4 4 3 3 3 3 3 3 3 3 2 2 2 1 1 0 -0 -0 -1 -1 -2 -2 -3 -3 -4 -4 -5 -5 -6 -6 -7 -7 -8
Wind_Speed
13 14 16 18 18 18 18 18 18 18 19 19 20 20 19 19 19 18 17 16 17 15 13 13 13 11 8 7 7 6 6 6 6 4 2 1 2 2 1 1 2 3 3
11 13 15 16 17 18 18 18 18 18 19 19 19 19 19 19 19 19 18 17 17 16 15 14 13 10 11 8 7 8 7 7 6 6 3 2 2 1 2 2 2 3 4
10 12 14 15 17 18 18 17 17 17 18 19 19 20 19 19 19 18 18 17 17 16 15 14 13 12 12 9 9 8 6 5 5 4 3 1 1 1 2 2 3 3 3
9 11 13 15 17 18 18 17 17 17 17 18 19 19 19 18 18 18 17 16 15 14 13 13 13 13 12 11 9 8 7 6 5 4 3 2 1 1 1 2 3 3 3
9 10 12 14 14 15 16 17 17 16 16 16 17 17 17 16 16 17 16 15 15 13 12 11 11 11 11 9 7 8 7 6 5 4 3 2 1 1 1 2 3 4 3
8 10 11 12 13 14 15 16 16 16 16 16 16 16 16 13 15 18 16 15 14 13 12 10 9 10 10 9 9 8 7 7 6 4 3 3 2 1 1 1 2 3 3
8 9 10 11 13 14 14 15 16 16 16 16 15 16 16 16 18 19 17 14 13 13 12 11 8 8 10 9 9 9 7 5 5 5 4 3 2 2 1 1 2 3 3
7 9 10 11 13 13 14 15 16 14 15 15 15 15 14 15 19 20 18 13 11 11 11 12 11 10 10 11 9 7 6 4 3 3 3 2 2 2 1 0 1 2 2
8 9 10 11 13 13 14 14 14 13 13 13 13 14 14 14 19 20 18 11 9 10 9 10 11 11 14 15 12 10 8 6 8 9 9 8 8 6 4 2 1 1 2
8 8 10 11 12 14 14 14 12 12 12 11 11 12 13 13 19 21 20 11 11 9 8 8 11 12 17 16 12 11 10 7 8 7 8 8 7 6 5 3 1 1 2
7 8 9 10 12 13 13 12 12 12 12 11 11 10 11 13 18 22 20 12 12 11 9 8 9 15 17 16 12 9 11 10 8 7 6 5 4 3 3 4 3 1 1
7 7 8 9 10 10 12 12 12 13 13 12 11 10 9 11 14 18 20 16 14 12 10 9 10 17 17 15 11 13 15 12 7 6 5 4 3 2 2 3 4 4 2
7 7 7 8 9 11 13 13 12 12 11 11 10 10 9 9 11 17 19 18 17 11 10 14 16 19 17 12 14 16 12 8 7 6 5 3 2 3 3 2 3 3 2
7 6 7 8 9 10 10 11 11 12 12 12 11 11 10 10 10 11 12 13 15 13 12 16 18 17 12 13 12 9 6 6 6 5 5 4 3 3 2 2 1 2 2
6 6 6 7 8 8 8 8 10 10 12 13 12 12 13 12 13 17 15 13 12 13 14 11 9 9 8 7 7 6 6 6 6 5 5 4 3 3 2 1 1 1 2
6 6 6 7 7 7 7 6 6 8 12 13 13 13 11 13 20 21 20 20 21 22 15 11 10 9 9 9 8 7 6 5 5 5 5 4 4 3 2 1 1 1 2
7 6 6 7 8 8 9 9 9 8 11 12 15 15 15 20 22 23 23 23 23 20 11 10 10 10 9 8 8 7 6 6 5 5 5 4 4 3 2 1 1 1 2
6 6 6 7 8 8 8 8 9 11 10 8 10 16 19 21 23 24 25 20 13 10 9 10 10 9 9 9 8 7 7 6 5 5 5 4 3 3 2 1 0 1 2
5 5 5 7 7 8 8 8 9 10 11 10 9 11 17 20 21 22 20 12 12 10 9 9 9 9 9 9 8 8 8 7 6 5 5 4 3 3 2 1 0 1 2
4 6 7 7 8 9 9 9 9 10 11 11 11 11 13 13 12 12 9 9 9 10 10 9 9 9 9 9 9 8 7 7 7 5 5 4 3 3 2 1 0 1 2
4 5 8 8 8 8 9 9 9 10 11 10 10 12 17 13 12 12 10 9 9 10 10 10 10 10 9 9 8 9 9 7 6 5 5 4 3 3 2 1 0 1 2
4 5 6 7 8 8 9 9 9 9 11 12 10 11 16 11 10 10 9 9 8 8 9 10 9 9 9 9 9 9 8 7 7 6 5 4 3 3 2 1 0 1 1
4 5 6 6 7 10 10 9 10 10 11 11 11 11 11 10 10 10 10 10 9 9 9 9 10 9 9 8 8 8 8 8 7 7 6 5 4 3 2 1 1 1 2
5 6 7 7 8 9 9 10 10 10 11 11 11 11 10 10 10 11 10 10 10 9 9 9 10 12 13 10 9 8 8 9 9 8 8 6 4 3 2 1 1 0 1
5 7 7 8 9 9 10 10 10 10 10 11 11 11 11 11 11 11 10 10 11 10 11 11 10 12 13 12 11 10 12 13 12 10 8 6 5 4 3 2 1 0 1
6 7 7 7 8 9 10 10 10 10 11 11 11 11 11 11 11 11 11 11 11 11 11 10 12 13 14 12 13 15 15 14 13 12 8 6 5 4 3 2 1 0 1
Wind_Direction
213 210 208 203 200 199 201 200 197 195 191 191 192 193 194 196 195 196 199 198 202 204 203 207 210 208 206 206 207 210 216 220 238 245 229 212 233 250 284 298 301 302 303
217 213 211 206 200 198 201 201 199 195 193 192 190 192 194 195 195 197 199 199 201 202 202 203 208 204 206 205 204 208 212 213 224 240 239 230 244 255 290 300 313 307 303
221 216 212 207 203 201 201 200 197 195 193 191 190 193 194 195 195 198 200 199 201 202 200 201 203 201 205 204 204 205 207 207 215 225 236 234 234 256 289 293 300 311 314
227 219 214 210 207 203 202 199 196 192 191 190 191 193 194 194 194 195 196 198 198 199 199 199 200 200 203 199 199 201 196 195 198 205 215 224 236 271 288 297 299 308 314
233 224 217 213 209 204 200 197 193 191 190 188 190 192 192 193 194 192 191 192 193 193 194 197 199 196 194 190 189 190 184 184 182 193 202 205 219 241 271 290 299 312 316
243 230 221 214 207 203 199 194 190 189 187 186 189 190 191 192 184 182 185 187 188 188 186 186 183 179 174 168 164 163 167 176 183 187 195 205 224 239 265 294 310 315 305
253 236 223 213 206 201 197 193 190 188 185 186 187 189 191 189 178 177 177 183 183 184 181 178 173 172 168 164 150 139 136 132 153 175 179 198 202 207 194 262 299 307 308
253 240 225 211 206 199 194 192 189 187 186 187 187 187 188 185 173 173 168 175 176 178 179 177 173 171 169 161 152 144 135 124 132 138 145 137 117 119 118 87 316 322 330
251 241 228 212 204 198 195 192 188 185 185 184 184 183 184 179 169 166 162 170 166 168 170 171 170 166 157 150 147 140 129 112 95 100 98 96 93 92 91 88 57 354 324
258 246 233 214 202 197 195 191 186 182 178 175 177 179 178 176 167 164 162 166 161 159 155 159 162 159 154 152 154 151 146 143 131 118 106 97 93 87 72 60 59 8 345
269 251 236 215 202 195 191 187 180 174 169 169 167 169 171 169 164 164 164 167 163 158 157 158 160 153 151 152 152 153 150 144 136 128 118 107 96 82 67 52 41 19 338
269 250 233 214 197 188 183 179 175 168 165 163 160 159 162 163 162 166 164 162 156 156 157 155 152 149 147 146 144 139 137 134 130 128 126 122 113 95 73 60 53 41 25
265 247 226 207 191 184 182 175 172 168 167 165 163 161 157 154 153 154 157 153 147 147 146 143 141 141 139 137 136 137 137 134 134 135 135 130 116 106 94 79 65 56 36
253 239 213 197 186 182 180 176 174 172 169 167 165 162 157 154 153 153 153 147 139 134 131 131 130 129 126 129 133 133 130 133 135 136 132 125 118 114 100 77 48 23 4
242 225 203 188 178 174 172 175 176 176 173 169 169 165 164 166 164 157 154 154 151 143 135 132 134 136 137 136 132 130 127 127 123 123 129 129 124 117 101 76 44 357 343
230 208 189 177 171 163 153 140 123 145 146 152 159 163 165 157 151 149 147 145 143 142 138 143 147 149 151 150 146 139 134 135 134 133 133 131 131 128 114 83 40 359 349
224 206 184 175 169 163 158 155 145 115 116 132 142 147 150 149 148 146 145 143 145 143 140 149 153 154 152 150 147 143 141 139 137 137 135 134 133 130 126 110 47 10 356
220 200 185 176 167 164 160 157 156 152 146 133 132 139 144 148 148 146 143 139 145 147 149 153 154 153 151 149 146 141 138 139 139 137 135 134 134 134 132 122 67 3 344
209 187 181 170 162 157 152 150 150 149 146 142 137 137 141 143 144 146 146 148 154 155 152 150 150 149 148 145 143 143 143 144 142 141 138 137 138 137 132 124 74 9 334
205 182 175 163 156 152 150 151 149 149 148 150 151 150 147 145 148 151 149 147 150 151 149 148 146 145 145 144 143 143 142 142 144 142 139 139 138 137 138 145 152 321 324
180 164 159 157 155 153 152 153 151 151 151 152 153 157 156 156 154 153 151 149 148 148 148 145 143 144 144 143 144 145 144 144 145 144 142 140 138 136 138 144 132 325 326
166 162 160 158 154 153 150 149 148 148 150 149 149 150 149 147 147 146 145 142 139 140 143 143 143 144 147 149 149 148 148 147 148 146 142 139 137 137 139 137 115 330 325
158 154 150 149 149 148 147 148 148 148 149 149 148 146 146 143 142 142 140 138 135 134 136 137 137 136 136 138 143 148 150 152 153 150 145 143 142 143 147 149 162 302 321
156 154 151 149 148 149 148 146 146 145 147 146 145 144 143 141 137 136 136 134 133 133 133 134 134 137 136 135 136 138 139 141 142 145 145 145 144 145 147 149 175 300 315
152 151 151 149 147 147 145 144 144 144 144 142 141 139 138 137 136 136 135 133 132 131 130 130 131 134 137 136 136 136 137 137 137 138 141 141 140 143 147 149 159 302 325
139 140 142 141 143 144 144 144 145 144 142 140 139 140 140 139 138 139 138 136 133 131 130 129 131 134 136 135 136 137 139 139 138 138 139 139 139 143 145 146 150 272 331
Height
1379 1384 1389 1394 1399 1405 1411 1416 1421 1427 1433 1438 1444 1450 1455 1460 1465 1470 1475 1479 1483 1487 1490 1494 1497 1500 1502 1504 1506 1507 1508 1509 1509 1508 1508 1507 1506 1505 1503 1501 1499 1497 1495
1374 1379 1384 1389 1394 1400 1405 1411 1416 1422 1427 1433 1439 1444 1450 1455 1460 1464 1469 1473 1477 1481 1485 1488 1492 1495 1497 1499 1501 1502 1503 1504 1505 1504 1503 1503 1502 1500 1499 1497 1495 1493 1491
1370 1374 1378 1383 1388 1394 1399 1405 1410 1416 1422 1427 1433 1438 1444 1449 1454 1459 1464 1468 1472 1476 1480 1483 1487 1490 1492 1494 1496 1497 1499 1500 1500 1500 1499 1499 1498 1497 1495 1494 1492 1489 1487
1366 1369 1373 1377 1382 1387 1393 1399 1404 1410 1416 1421 1427 1433 1438 1444 1449 1453 1458 1463 1467 1471 1475 1478 1482 1485 1487 1489 1491 1493 1494 1495 1495 1495 1495 1495 1494 1493 1491 1490 1488 1486 1484
1362 1365 1368 1373 1378 1383 1388 1394 1399 1405 1410 1416 1422 1427 1433 1438 1443 1447 1452 1457 1462 1466 1470 1473 1477 1480 1483 1485 1487 1488 1489 1490 1491 1491 1491 1490 1490 1489 1488 1486 1484 1483 1480
1358 1360 1364 1368 1373 1378 1383 1389 1394 1399 1405 1411 1416 1422 1427 1432 1437 1442 1447 1452 1456 1461 1465 1469 1472 1475 1478 1480 1483 1484 1486 1486 1487 1487 1487 1487 1486 1486 1484 1483 1482 1480 1477
1353 1356 1360 1363 1368 1373 1378 1384 1389 1394 1399 1405 1410 1416 1422 1427 1432 1437 1443 1447 1451 1456 1460 1464 1467 1470 1473 1476 1478 1480 1481 1482 1483 1484 1484 1484 1483 1482 1482 1480 1479 1477 1475
1350 1352 1355 1359 1363 1368 1373 1378 1383 1389 1394 1399 1405 1411 1416 1422 1427 1432 1438 1443 1447 1451 1455 1459 1463 1466 1468 1471 1474 1475 1477 1478 1479 1480 1481 1481 1480 1480 1479 1478 1476 1474 1472
1346 1348 1350 1354 1358 1363 1367 1372 1378 1384 1389 1394 1400 1405 1411 1417 1422 1427 1433 1438 1442 1447 1451 1455 1459 1461 1464 1467 1470 1471 1473 1474 1476 1477 1478 1478 1477 1477 1476 1475 1473 1471 1469
1341 1343 1347 1350 1354 1358 1362 1368 1374 1380 1385 1390 1395 1401 1406 1412 1417 1422 1428 1433 1437 1442 1446 1451 1455 1458 1461 1464 1466 1468 1469 1471 1473 1474 1474 1475 1474 1474 1473 1472 1470 1469 1466
1338 1340 1342 1346 1350 1354 1359 1364 1370 1375 1381 1386 1391 1396 1402 1407 1413 1418 1423 1428 1432 1437 1442 1446 1450 1454 1457 1460 1463 1465 1467 1469 1470 1471 1471 1472 1471 1471 1470 1469 1468 1466 1464
1334 1335 1338 1341 1345 1350 1355 1360 1365 1371 1376 1381 1387 1392 1398 1404 1409 1414 1419 1425 1430 1434 1438 1443 1447 1451 1454 1457 1460 1462 1464 1466 1467 1468 1469 1469 1469 1468 1468 1467 1465 1464 1462
1330 1331 1334 1337 1341 1345 1350 1355 1361 1366 1372 1377 1382 1387 1393 1399 1405 1410 1416 1421 1426 1431 1436 1440 1444 1448 1451 1454 1457 1459 1461 1463 1464 1465 1466 1466 1466 1466 1465 1464 1462 1461 1460
1326 1327 1330 1333 1337 1342 1347 1351 1356 1361 1366 1372 1377 1382 1388 1394 1400 1405 1411 1417 1423 1428 1433 1437 1441 1445 1448 1451 1454 1456 1459 1461 1462 1463 1464 1464 1464 1463 1463 1462 1460 1459 1457
1322 1324 1327 1330 1334 1338 1343 1348 1352 1357 1362 1367 1373 1378 1384 1389 1396 1402 1407 1413 1418 1423 1428 1433 1437 1441 1445 1448 1451 1454 1456 1458 1460 1461 1461 1462 1462 1461 1461 1459 1458 1457 1455
1318 1320 1323 1327 1330 1334 1339 1345 1351 1356 1361 1367 1372 1377 1383 1388 1394 1400 1406 1411 1416 1421 1426 1430 1434 1438 1441 1445 1448 1451 1453 1455 1457 1458 1459 1460 1460 1459 1459 1458 1457 1455 1453
1315 1317 1320 1324 1327 1331 1336 1341 1346 1353 1359 1365 1370 1375 1380 1386 1391 1397 1403 1409 1414 1419 1423 1427 1431 1435 1439 1442 1445 1448 1451 1453 1455 1456 1457 1457 1458 1457 1457 1456 1455 1454 1452
1312 1314 1317 1321 1325 1329 1334 1339 1344 1349 1355 1361 1368 1373 1378 1384 1389 1395 1401 1406 1411 1416 1420 1424 1428 1432 1436 1440 1443 1446 1449 1451 1453 1454 1455 1455 1456 1456 1455 1454 1453 1452 1450
1309 1311 1315 1318 1322 1327 1331 1337 1342 1347 1352 1358 1364 1371 1377 1382 1388 1394 1399 1403 1407 1412 1417 1422 1426 1430 1434 1438 1441 1444 1447 1449 1451 1452 1453 1453 1454 1454 1453 1453 1452 1451 1449
1306 1309 1312 1316 1320 1324 1329 1334 1339 1344 1350 1356 1361 1367 1374 1380 1385 1390 1396 1401 1406 1410 1415 1420 1424 1428 1432 1436 1439 1442 1445 1447 1449 1450 1451 1451 1452 1452 1452 1451 1450 1449 1447
1304 1307 1311 1314 1317 1322 1327 1332 1337 1342 1348 1354 1359 1365 1372 1377 1382 1388 1394 1399 1404 1408 1413 1418 1422 1426 1430 1434 1437 1440 1443 1445 1447 1448 1449 1450 1450 1450 1450 1450 1449 1448 1446
1302 1305 1308 1311 1316 1320 1325 1330 1335 1340 1346 1352 1358 1364 1370 1376 1381 1386 1392 1397 1402 1407 1412 1416 1420 1425 1429 1433 1436 1438 1441 1443 1445 1446 1447 1448 1448 1449 1449 1448 1447 1446 1445
1300 1303 1306 1310 1315 1319 1324 1329 1334 1339 1345 1350 1355 1361 1368 1373 1379 1385 1390 1396 1401 1406 1410 1415 1419 1423 1428 1431 1435 1437 1440 1442 1443 1445 1445 1446 1447 1447 1447 1447 1446 1445 1444
1298 1301 1305 1309 1313 1318 1323 1328 1332 1338 1343 1349 1355 1361 1367 1372 1378 1383 1389 1395 1400 1405 1409 1414 1419 1423 1427 1430 1433 1436 1439 1441 1442 1443 1444 1445 1446 1446 1446 1445 1445 1444 1442
1297 1300 1304 1308 1312 1317 1321 1326 1331 1337 1342 1348 1354 1360 1366 1371 1377 1383 1388 1394 1399 1404 1409 1413 1417 1422 1426 1429 1432 1435 1437 1439 1441 1442 1443 1444 1444 1445 1445 1444 1443 1443 1441
1297 1300 1304 1308 1312 1316 1320 1325 1331 1336 1342 1348 1354 1359 1365 1370 1376 1382 1387 1393 1398 1403 1407 1412 1417 1421 1425 1428 1431 1434 1436 1438 1440 1441 1442 1443 1443 1444 1443 1443 1442 1441 1440